Terminal Aerodrome Forecast
Issued by NWS

Home | Current Version | Previous Version | Graphics & Text | Print | Product List | Glossary On
Versions: 1 2 3 4 5 6 7 8 9 10 11 12 13 14 15 16 17 18 19 20 21 22 23 24 25 26 27 28 29 30 31 32 33 34 35 36 37
000
FTUS43 KLOT 200800 AAA
TAFMDW
TAF AMD
KMDW 200859Z 2009/2106 00000KT P6SM BKN250
     FM201500 20007KT P6SM FEW050 SCT250
     FM202300 11009KT P6SM FEW060 SCT250
     FM210200 14005KT P6SM SCT250=

USA.gov is the U.S. government's official web portal to all federal, state and local government web resources and services.